Overview Statistics Trail Chart Weather Telemetry Raw packets
 

This is the latest recevied weather packets stored in our database for station/object W6MAF. If no packets are shown the sender has not sent any weather packets the latest 10 day(s).

<< 89 90 91 92 93 94 95 >>
Time Temp. Humidity Pressure Rain* Wind** Luminosity Snow
1788018891 26.67° C 21% - 0 mm 5.36 m/s, 229° - -
1788018593 26.67° C 21% - 0 mm 4.02 m/s, 205° - -
1788018292 26.11° C 22% - 0 mm 3.13 m/s, 226° - -
1788017995 26.11° C 23% - 0 mm 5.81 m/s, 214° - -
1788017697 25.56° C 24% - 0 mm 7.15 m/s, 224° - -
1788017399 25.56° C 25% - 0 mm 4.92 m/s, 240° - -
1788017101 25° C 25% - 0 mm 5.36 m/s, 215° - -
1788016804 25° C 26% - 0 mm 6.26 m/s, 217° - -
1788016511 25° C 26% - 0 mm 7.15 m/s, 218° - -
1788016205 25° C 26% - 0 mm 4.47 m/s, 228° - -
1788015910 25° C 27% - 0 mm 4.92 m/s, 236° - -
1788015610 25° C 27% - 0 mm 4.92 m/s, 193° - -
1788015312 24.44° C 28% - 0 mm 7.15 m/s, 226° - -
1788015014 24.44° C 28% - 0 mm 7.15 m/s, 217° - -
1788014713 23.89° C 29% - 0 mm 4.92 m/s, 210° - -
1788014415 23.89° C 30% - 0 mm 6.71 m/s, 205° - -
1788014119 23.89° C 31% - 0 mm 4.02 m/s, 249° - -
1788013820 23.33° C 31% - 0 mm 6.26 m/s, 231° - -
1788013522 23.33° C 32% - 0 mm 4.02 m/s, 238° - -
1788013225 22.78° C 33% - 0 mm 4.92 m/s, 212° - -
1788012924 22.78° C 33% - 0 mm 4.92 m/s, 224° - -
1788012626 22.78° C 34% - 0 mm 4.92 m/s, 211° - -
1788012328 22.22° C 35% - 0 mm 4.02 m/s, 193° - -
1788012031 21.67° C 36% - 0 mm 3.13 m/s, 239° - -
1788011435 21.67° C 38% - 0 mm 2.68 m/s, 194° - -

* Rain latest hour (hover to see other rain measurements)
** Current wind speed in m/s (hover to see current wind gust speed)